Location: L�beck
(53.8752°N, 10.6787°E)
Time: 04:33:27
(UTC+01:00)

ISS - Pass Details

Date: 12 February 2018
Orbit: 402 x 407 km, 51.6° (Epoch: 25 February)

Event Time Altitude Azimuth Distance (km) Brightness Sun altitude
Rises 18:31:51 0° 275° (W) 2,321 1.9 -10.9°
Reaches altitude 10° 18:34:55 10° 243° (WSW) 1,458 0.3 -11.4°
Maximum altitude 18:36:18 12° 218° (SW) 1,330 -0.6 -11.6°
Drops below altitude 10° 18:37:41 10° 193° (SSW) 1,454 -0.8 -11.8°
Sets 18:40:44 0° 161° (SSE) 2,310 -0.1 -12.2°
